www.pogodaiklimat.ru

Погода и климат >> Архив погоды >> Великобритания >> Кесвик


ПОГОДА в Кесвике

  • Прогноз погоды в Кесвике
  • Монитор погоды в Кесвике

АРХИВ ПОГОДЫ в Кесвике

Время (UTC), дата Ветер
(напр.,м/с)
 
Видим.   Явления Облачность Т
(С)
Тd
(С)
f
(%)
Тe
(С)
Тes
(С)
Комфортность P
(гПа)
Po
(гПа)
Тmin
(С)
Tmax
(С)
R
(мм)
R24
(мм)
S
(см)
01 13.09 штиль 0 23 км н/о +7.8 +7.4 97 +7 +7 1031.4 1021.3
02 13.09 ЮВ 1 20 км н/о +6.5 +6.0 97 +6 +6 1031.9 1021.8
03 13.09 Ю 1 16 км н/о +6.8 +6.7 99 +7 +7 1032.3 1022.2
04 13.09 Ю 1 18 км н/о +7.2 +7.2 100 +7 +7 1032.6 1022.4
05 13.09 ЮВ 1 23 км н/о +8.4 +8.4 100 +8 +8 1033.5 1023.4
06 13.09 С 1 19 км н/о +8.9 +8.7 99 +8 +8 1033.8 1023.7 +5.8
07 13.09 С 1 19 км н/о +10.0 +9.5 97 +9 +9 1034.5 1024.5
08 13.09 СЗ 1 23 км н/о +11.2 +10.5 95 +12 +12 1035.2 1025.2
09 13.09 С 1 17 км н/о +13.5 +10.3 81 +14 +14 1035.6 1025.7
10 13.09 СЗ 2 24 км н/о +13.1 +8.8 75 +13 +13 1035.7 1025.8
11 13.09 З 2 27 км н/о +14.1 +9.6 74 +14 +14 1036.2 1026.2
12 13.09 З 2 27 км н/о +14.3 +9.5 73 +14 +14 1036.4 1026.4
13 13.09 З 2 24 км н/о +14.4 +7.6 64 +14 +14 1036.5 1026.6
14 13.09 СЗ 2 29 км н/о +15.8 +9.3 65 +16 +16 1036.3 1026.4
15 13.09 З 2 20 км н/о +15.8 +8.7 63 +16 +16 1036.3 1026.5
16 13.09 З 3 30 км н/о +15.5 +7.7 60 +15 +15 1035.7 1025.8
17 13.09 З 2 26 км н/о +15.0 +8.3 64 +15 +15 1035.8 1026.0
18 13.09 З 1 26 км н/о +14.0 +8.2 68 +14 +14 1036.7 1026.7 +16.6
19 13.09 В 1 30 км н/о +11.0 +8.4 84 +12 +12 1036.8 1026.7
20 13.09 ЮВ 1 26 км н/о +9.4 +7.6 89 +10 +10 1036.9 1026.9
21 13.09 СЗ 1 17 км н/о +7.7 +6.8 94 +8 +8 1036.9 1026.8
22 13.09 Ю 1 20 км н/о +7.3 +6.6 95 +7 +7 1037.0 1026.9
23 13.09 В 1 23 км н/о +7.1 +6.8 98 +7 +7 1036.5 1026.4
00 14.09 штиль 0 22 км дымка н/о +6.4 +6.2 99 +5 +5 1036.6 1026.4
01 14.09 ЮВ 1 4200 м н/о +5.6 +5.3 98 +5 +5 1036.3 1026.1
02 14.09 В 1 18 км н/о +6.0 +5.9 99 +6 +6 1035.9 1025.7
03 14.09 ЮВ 1 30 км н/о +6.3 +6.1 99 +5 +5 1035.0 1024.8
04 14.09 ЮВ 1 23 км н/о +6.2 +6.0 99 +6 +6 1033.9 1023.8
05 14.09 В 2 30 км н/о +7.3 +7.1 99 +5 +5 1032.8 1022.7
06 14.09 ЮВ 2 25 км н/о +8.3 +7.5 95 +7 +7 1032.6 1022.5 +5.1
07 14.09 В 1 35 км н/о +10.7 +7.8 82 +11 +11 1032.0 1022.0
08 14.09 СВ 1 30 км н/о +12.6 +8.5 76 +13 +13 1031.6 1021.7
09 14.09 СВ 1 40 км н/о +14.5 +9.4 71 +16 +16 1030.9 1021.1
10 14.09 Ю 1 26 км н/о +16.0 +9.5 65 +17 +17 1030.7 1020.9
11 14.09 Ю 3 35 км н/о +16.2 +9.3 64 +16 +16 1030.1 1020.3
12 14.09 Ю 3 27 км н/о +16.3 +7.2 55 +16 +16 1029.4 1019.6
13 14.09 ЮЗ 3 35 км н/о +17.1 +8.4 57 +17 +17 1029.1 1019.4
14 14.09 ЮЗ 4 24 км н/о +16.5 +8.9 61 +16 +16 1028.0 1018.3
15 14.09 СВ 1 22 км н/о +16.9 +8.6 58 +18 +18 1026.6 1016.8
16 14.09 Ю 1 25 км н/о +18.0 +9.0 56 +19 +19 1025.7 1016.1
17 14.09 Ю 2 18 км дым н/о +16.7 +6.2 50 +17 +17 1025.1 1015.4
18 14.09 С 1 45 км н/о +15.5 +9.1 66 +17 +17 1024.5 1014.7 +18.2
19 14.09 ЮЗ 5 45 км н/о +16.5 +7.5 55 +16 +16 1024.5 1014.8
20 14.09 ЮЗ 5-13
{13}
40 км н/о +17.2 +8.3 56 +17 +17 1023.7 1014.0
21 14.09 ЮЗ 7 45 км н/о +17.4 +9.8 61 +17 +17 1023.1 1013.4
22 14.09 ЮЗ 6-12
{13}
35 км н/о +17.0 +11.3 69 +16 +16 1023.0 1013.3
23 14.09 ЮЗ 5-11
{13}
9000 м ливневой дождь н/о +15.3 +12.9 86 +14 +14 1022.6 1012.9
00 15.09 З 5 18 км в посл. час дождь н/о +16.4 +13.2 81 +16 +16 1021.8 1012.1
01 15.09 З 5
{14}
10 км слаб. морось с дождем н/о +16.0 +13.4 85 +15 +15 1021.4 1011.7
02 15.09 З 4-9
{13}
7000 м слаб. морось с дождем н/о +15.4 +13.5 88 +14 +14 1021.2 1011.5
03 15.09 СЗ 2 3600 м морось н/о +12.9 +12.3 96 +12 +12 1021.9 1012.0
04 15.09 СЗ 2 3700 м морось н/о +11.9 +11.3 96 +11 +11 1022.2 1012.4
05 15.09 З 2 16 км слаб. морось н/о +12.2 +11.4 95 +11 +11 1022.1 1012.3
06 15.09 З 2 13 км в посл. час морось н/о +12.8 +10.7 87 +12 +12 1022.3 1012.5 +11.7
07 15.09 З 2 12 км н/о +12.7 +10.3 85 +12 +12 1023.0 1013.2
08 15.09 СЗ 1 14 км н/о +12.7 +9.1 79 +13 +13 1023.7 1013.8
09 15.09 З 2 13 км н/о +12.9 +9.4 79 +12 +12 1023.9 1014.0
10 15.09 З 1 13 км н/о +13.7 +8.5 71 +15 +15 1024.0 1014.2
11 15.09 З 1 12 км н/о +13.9 +9.6 75 +14 +14 1024.2 1014.3
12 15.09 СЗ 1 12 км н/о +14.0 +9.5 74 +15 +15 1024.0 1014.2
13 15.09 З 1 14 км н/о +13.9 +9.1 73 +14 +14 1024.1 1014.2
14 15.09 СЗ 1 14 км в посл. час дождь н/о +13.7 +10.3 80 +14 +14 1024.1 1014.3
15 15.09 З 2 20 км н/о +14.0 +8.3 68 +14 +14 1023.9 1014.1
16 15.09 З 2 25 км н/о +14.0 +8.2 68 +14 +14 1023.1 1013.3
17 15.09 З 2 40 км н/о +13.8 +7.9 68 +14 +14 1022.9 1013.1
18 15.09 З 1 27 км н/о +12.2 +8.1 76 +12 +12 1023.0 1013.1 +14.4
19 15.09 З 1 30 км н/о +10.4 +8.0 85 +11 +11 1023.1 1013.2
20 15.09 штиль 0 24 км н/о +9.5 +8.2 92 +9 +9 1023.3 1013.4
21 15.09 В 1 22 км н/о +9.6 +8.6 93 +9 +9 1023.3 1013.4
22 15.09 С 1 18 км н/о +9.3 +8.5 95 +10 +10 1023.5 1013.5
23 15.09 ЮВ 1 18 км н/о +8.9 +8.4 97 +9 +9 1023.5 1013.5
00 16.09 штиль 0 13 км н/о +7.9 +7.2 95 +7 +7 1023.4 1013.3
01 16.09 штиль 0 16 км н/о +7.7 +7.4 98 +7 +7 1023.4 1013.4
02 16.09 В 1 16 км н/о +7.7 +7.5 99 +7 +7 1023.3 1013.3
03 16.09 штиль 0 12 км н/о +6.6 +6.3 98 +5 +5 1022.8 1012.7
04 16.09 ЮВ 1 13 км н/о +5.9 +5.6 98 +6 +6 1022.9 1012.8
05 16.09 ЮВ 1 14 км н/о +6.2 +6.1 99 +5 +5 1022.7 1012.6
06 16.09 штиль 0 15 км н/о +5.4 +5.2 99 +4 +4 1023.1 1013.0 +5.3
07 16.09 В 1 16 км н/о +6.1 +6.1 100 +6 +6 1023.1 1013.1
08 16.09 штиль 0 18 км н/о +8.7 +8.7 100 +8 +8 1023.5 1013.5
09 16.09 ЮВ 1 23 км н/о +11.1 +8.9 86 +12 +12 1023.6 1013.7
10 16.09 З 1 23 км н/о +13.4 +9.2 76 +14 +14 1023.5 1013.7
11 16.09 СЗ 2 35 км н/о +14.4 +7.4 63 +14 +14 1023.8 1014.0
12 16.09 СЗ 1 35 км н/о +14.8 +8.2 65 +15 +15 1023.9 1014.1
13 16.09 СЗ 2 27 км н/о +14.9 +7.6 62 +15 +15 1023.5 1013.8
14 16.09 СЗ 2 35 км н/о +14.5 +8.7 68 +15 +15 1023.3 1013.5
15 16.09 З 3 30 км н/о +14.1 +9.2 72 +13 +13 1023.3 1013.5
16 16.09 З 3 40 км н/о +13.7 +9.2 74 +13 +13 1023.4 1013.5
17 16.09 З 2 40 км н/о +13.9 +8.5 70 +14 +14 1023.1 1013.3
18 16.09 СЗ 2 40 км н/о +12.8 +7.7 71 +12 +12 1023.6 1013.7 +16.2
19 16.09 СЗ 1 40 км н/о +11.3 +7.3 76 +12 +12 1024.1 1014.2
20 16.09 СЗ 1 40 км н/о +11.2 +7.8 80 +12 +12 1024.3 1014.4
21 16.09 СЗ 1 45 км н/о +10.7 +7.0 78 +11 +11 1024.3 1014.4
22 16.09 З 1 40 км н/о +10.4 +7.5 82 +10 +10 1024.1 1014.2
23 16.09 СЗ 1 30 км н/о +9.9 +7.5 85 +10 +10 1024.5 1014.5
00 17.09 СЗ 1 20 км н/о +9.8 +7.5 86 +10 +10 1024.7 1014.7
01 17.09 СЗ 1 26 км н/о +8.7 +7.3 91 +9 +9 1024.6 1014.6
02 17.09 З 1 30 км н/о +8.5 +7.2 92 +9 +9 1024.6 1014.6
03 17.09 Ю 1 25 км н/о +8.7 +7.4 92 +9 +9 1024.6 1014.6
04 17.09 СЗ 1 26 км н/о +9.6 +8.2 91 +10 +10 1024.7 1014.7
05 17.09 З 1 19 км н/о +9.3 +7.5 89 +10 +10 1024.7 1014.7
06 17.09 СЗ 1 20 км н/о +9.3 +7.1 86 +9 +9 1025.0 1015.0 +7.4
07 17.09 СВ 1 23 км н/о +8.9 +7.3 90 +9 +9 1025.4 1015.4
08 17.09 З 1 24 км н/о +11.4 +8.2 81 +11 +11 1025.8 1015.9
09 17.09 СЗ 1 26 км н/о +12.2 +8.9 80 +13 +13 1026.4 1016.5
10 17.09 СЗ 2 17 км н/о +13.8 +9.0 73 +14 +14 1026.6 1016.8
11 17.09 СЗ 2 30 км н/о +14.8 +8.3 65 +15 +15 1026.8 1017.0
12 17.09 СЗ 2 20 км н/о +15.0 +7.1 59 +15 +15 1027.1 1017.3
13 17.09 СЗ 1 40 км н/о +14.1 +3.6 49 +15 +15 1027.2 1017.3
14 17.09 З 2 24 км н/о +14.3 +5.4 55 +14 +14 1027.2 1017.4
15 17.09 СЗ 1 26 км н/о +15.8 +6.2 53 +17 +17 1027.2 1017.4
16 17.09 СЗ 1 23 км н/о +14.9 +6.2 56 +16 +16 1027.3 1017.5
17 17.09 СЗ 1 21 км н/о +15.1 +5.8 54 +16 +16 1027.2 1017.4
18 17.09 СЗ 1 21 км н/о +12.6 +5.4 61 +14 +14 1027.6 1017.7 +16.0
19 17.09 ЮВ 1 35 км н/о +10.8 +7.2 78 +11 +11 1027.9 1017.9
20 17.09 ЮВ 1 30 км н/о +9.1 +6.4 83 +9 +9 1028.5 1018.5
21 17.09 штиль 0 20 км н/о +7.5 +5.7 88 +7 +7 1029.2 1019.1
22 17.09 В 1 22 км н/о +6.3 +5.0 91 +6 +6 1029.4 1019.2
23 17.09 ЮЗ 1 21 км н/о +5.5 +4.7 95 +5 +5 1029.5 1019.3
00 18.09 Ю 1 20 км н/о +4.6 +4.0 96 +4 +4 1029.7 1019.5
01 18.09 штиль 0 18 км н/о +4.6 +4.2 97 +3 +3 1029.6 1019.4
02 18.09 В 1 20 км н/о +6.1 +5.7 97 +5 +5 1029.4 1019.3
03 18.09 В 1 30 км н/о +6.9 +6.5 97 +7 +7 1029.3 1019.2
04 18.09 штиль 0 23 км н/о +7.2 +6.7 97 +6 +6 1029.4 1019.3
05 18.09 штиль 0 20 км н/о +7.6 +6.9 95 +7 +7 1029.3 1019.2
06 18.09 штиль 0 22 км н/о +7.9 +7.1 95 +7 +7 1029.6 1019.5 +4.4
07 18.09 штиль 0 23 км н/о +8.1 +7.5 96 +7 +7 1029.9 1019.9
08 18.09 штиль 0 27 км н/о +10.0 +8.8 92 +9 +9 1030.3 1020.3
09 18.09 В 1 35 км н/о +12.8 +8.9 77 +14 +14 1030.5 1020.6
10 18.09 З 1 30 км н/о +14.6 +8.6 67 +16 +16 1030.4 1020.6
11 18.09 З 1 18 км н/о +14.8 +8.6 66 +15 +15 1030.5 1020.7
12 18.09 СЗ 1 22 км н/о +15.1 +10.0 72 +16 +16 1030.5 1020.7
13 18.09 СЗ 1 19 км н/о +15.3 +10.2 72 +16 +16 1030.4 1020.6
14 18.09 СЗ 2 27 км н/о +16.1 +9.9 67 +16 +16 1030.2 1020.4
15 18.09 З 2 30 км н/о +16.1 +10.3 68 +16 +16 1029.9 1020.1
16 18.09 СЗ 1 30 км н/о +15.3 +10.7 74 +16 +16 1029.7 1019.9
17 18.09 З 1 30 км н/о +15.1 +9.9 71 +16 +16 1029.8 1020.0
18 18.09 СЗ 1 30 км н/о +13.7 +9.4 75 +15 +15 1030.1 1020.2 +16.6
19 18.09 С 1 30 км н/о +11.8 +8.9 82 +13 +13 1030.6 1020.6
20 18.09 штиль 0 26 км н/о +9.8 +8.1 89 +9 +9 1031.1 1021.1
21 18.09 штиль 0 19 км н/о +9.0 +8.2 95 +8 +8 1031.6 1021.5
22 18.09 В 1 13 км н/о +8.2 +7.9 98 +8 +8 1031.7 1021.6
23 18.09 ЮВ 1 9000 м н/о +7.9 +7.6 98 +8 +8 1031.6 1021.5
00 19.09 Ю 1 13 км дымка н/о +7.5 +7.3 99 +7 +7 1031.7 1021.5
01 19.09 штиль 0 29 км н/о +6.5 +6.2 98 +5 +5 1031.6 1021.5
02 19.09 ЮВ 1 22 км н/о +6.6 +6.4 99 +6 +6 1031.3 1021.1
03 19.09 штиль 0 11 км н/о +7.1 +7.0 99 +6 +6 1031.2 1021.1
04 19.09 В 1 7000 м в посл. час туман н/о +6.5 +6.4 99 +6 +6 1031.2 1021.0
05 19.09 штиль 0 8000 м дымка н/о +5.7 +5.6 99 +5 +5 1031.4 1021.2
06 19.09 ЮВ 1 200 м туман н/о +5.2 +5.1 99 +5 +5 1031.6 1021.4 +4.7
07 19.09 ЮВ 1 10 км в посл. час туман н/о +6.3 +6.3 100 +6 +6 1031.7 1021.6
08 19.09 ЮВ 1 3100 м дымка н/о +9.1 +9.1 100 +8 +8 1031.9 1021.9
09 19.09 В 1 21 км в посл. час туман н/о +12.2 +11.0 92 +13 +13 1032.0 1022.0
10 19.09 Ю 1 35 км н/о +15.9 +12.5 80 +17 +17 1031.8 1022.0
11 19.09 З 1 35 км н/о +17.5 +12.9 74 +19 +19 1031.5 1021.7
12 19.09 СЗ 1 30 км н/о +18.8 +12.5 67 +21 +21 комфорт 1031.3 1021.6
13 19.09 СЗ 2 50 км н/о +19.8 +13.1 65 +22 +22 комфорт 1030.8 1021.1
14 19.09 СЗ 2 40 км н/о +20.0 +12.6 62 +23 +23 комфорт 1030.5 1020.8
15 19.09 СЗ 2 29 км н/о +19.6 +12.4 63 +22 +22 комфорт 1030.2 1020.5
16 19.09 СЗ 2 35 км н/о +19.2 +12.2 64 +21 +21 комфорт 1030.0 1020.3
17 19.09 СЗ 1 30 км н/о +17.7 +11.8 68 +19 +19 1029.8 1020.1
18 19.09 З 1 23 км н/о +15.3 +11.4 78 +16 +16 1029.8 1020.0 +20.2
19 19.09 С 1 15 км н/о +12.2 +10.0 86 +13 +13 1030.0 1020.1
20 19.09 ЮВ 1 9000 м дым н/о +10.6 +9.4 92 +11 +11 1030.2 1020.2
21 19.09 штиль 0 17 км н/о +9.8 +8.9 94 +9 +9 1030.4 1020.4
22 19.09 В 1 7000 м дымка н/о +9.1 +8.7 97 +9 +9 1030.5 1020.5
23 19.09 В 1 10 км дымка н/о +8.8 +8.5 98 +9 +9 1030.1 1020.1
00 20.09 штиль 0 8000 м дымка н/о +8.0 +7.8 99 +7 +7 1029.7 1019.7

 

Местоположение метеостанции Кесвик (Великобритания): широта 54.62 долгота -3.17 высота над уровнем моря 81 м.

В архиве по умолчанию представлена погода в Кесвике за последнюю неделю. Архивные данные за месяц целиком и за предыдущие месяцы, начиная с января 2011 года, Вы можете получить, выбрав интересующий диапазон дат из раскрывающегося списка и нажав кнопку "Ввод!".


*Определитесь, кто Вы:
робот инопланетянин человек

Внимание! Время в таблицах - всемирное. Для получения местного времени необходимо прибавить поправку, которая равна 0 ч.

Смотрите также архив погоды в соседних городах и на ближайших метеорологических станциях:

Погода на Мысе Сент-Бис (Великобритания) (30 км)
Погода в Шапе (Великобритания) (34 км)
Погода в Карлайле (Великобритания) (37 км)
Погода в Грэйт Дан Фелле (Великобритания) (47 км)
Погода в Варкопе (Великобритания) (49 км)
Погода на Острове Уолни (Великобритания) (56 км)
Погода в Дандреннане (Великобритания) (57 км)
Погода в Спадедэме (Великобритания) (62 км)
Погода в Эскдейлмьюире (Великобритания) (78 км)
Погода в Лагере Redesdale (Великобритания) (93 км)

Пояснения к столбцам:

Ветер - указаны скорость ветра в м/с - средняя за 10 мин, порывы в срок и между сроками (в фигурных скобках) и направление, откуда дует ветер: С - северный, СВ - северо-восточный, В - восточный, ЮВ - юго-восточный, Ю - южный, ЮЗ - юго-западный, З - западный, СЗ - северо-западный.
Видимость - горизонтальная дальность видимости в метрах или километрах. При видимости от 1 до 10 км при отсутствии осадков обычно наблюдается дымка, при ухудшении видимости до 1 км и менее - туман. В сухую погоду видимость может ухудшаться дымом, пылью или мглою.
Явления - указаны атмосферные явления, наблюдавшиеся в срок или в последний час перед сроком; фигурными скобками обозначены явления, наблюдавшиеся между сроками (за 1-3 часа до срока); квадратными скобками обозначены град или гололедные отложения с указанием их диаметра в мм.
Облачность - указаны через наклонную черту общая и нижняя облачность в баллах и высота нижней границы облаков в метрах; квадратными скобками обозначены формы облаков: Ci - перистые, Cs - перисто-слоистые, Cc - перисто-кучевые, Ac - высококучевые, As - высокослоистые, Sc - слоисто-кучевые, Ns - слоисто-дождевые, Cu - кучевые, Cb - кучево-дождевые. Подробнее классификацию облаков см. в Атласе облаков (PDF).
T - Температура воздуха - температура, измеренная на высоте 2 м над землей.
Td - Температура точки росы - температура, при понижении до которой содержащийся в воздухе водяной пар достигнет насыщения.
f - Относительная влажность воздуха - влажноcть воздуха, измеренная на высоте 2 м над землей.
Te - Эффективная температура - температура, которую ощущает одетый по сезону человек в тени. Характеристика душности погоды. При расчете учитывается влияние влажности воздуха и скорости ветра на теплоощущения человека.
Tes - Эффективная температура на солнце - температура, которую ощущает человек, с поправкой на солнечный нагрев. Характеристика знойности погоды. Зависит от высоты солнца над горизонтом, облачности и скорости ветра. Ночью, в пасмурную погоду, а также при ветре 12 м/с и более поправка равна нулю.
P - Атмосферное давление - приведенное к уровню моря атмосферное давление.
Po - Атмосферное давление - измеренное на уровне метеостанции атмосферное давление.
Tmin - Минимальная температура - минимум температуры воздуха на высоте 2 м над землей.
Tmax - Максимальная температура - максимум температуры воздуха на высоте 2 м над землей.
R - Количество осадков - Количество выпавших осадков за период времени, мм. При наведении курсора мыши на число - период времени, за который выпало указанное количество осадков.
R24 - Количество осадков - Количество выпавших осадков за 24 часа, мм.
S - Снежный покров - Высота снежного покрова, см. При наведении курсора мыши на число - состояние снежного покрова и степень покрытия местности в баллах.